Location: Pilipovskiye Korichintsy
(49.1833°N, 27.4667°E)
Time: 22:20:31
(UTC+00:00)

SL-08 R/B - Pass Details

Date: 14 July 2020
Orbit: 674 x 739 km, 98.4° (Epoch: 10 August)

Event Time Altitude Azimuth Distance (km) Brightness Sun altitude
Exits shadow 01:22:18 - 183° (S) 2,838 6.0 -8.0°
Reaches altitude 10° 01:24:02 10° 188° (S) 2,165 5.4 -7.8°
Maximum altitude 01:28:34 45° 261° (W) 974 3.7 -7.3°
Drops below altitude 10° 01:33:15 10° 334° (NNW) 2,220 6.2 -6.7°
Sets 01:35:39 0° 341° (NNW) 3,155 7.1 -6.5°
